Погода в Кизляре

Россия / Республика Северная Осетия — Алания     43°42′07″N   44°35′43″E
темп.,
°C
ветер,
м/с
пор.,
м/с
влажн.,
%
обл.,
%
осадки,
мм/ч
давл.,
гПа
погр.,
м
12 апреля, пн
пн1200:00+9з22779 0.0 101618
03:00+8з3384100 0.0 101756
06:00+8зюз3683100 0.0 1019164
09:00+13зсз4562100 0.0 1020890
12:00+16сз3356100 0.0 10191401
15:00+14ссз3365100 0.0 1020806
18:00+13сз237299 0.0 102193
21:00+12сз2479100 0.0 1021110
13 апреля, вт
вт1300:00+11сз3582100 0.0 1022234
03:00+10з2485100 0.0 1022175
06:00+10з2387100 0.0 1022157
09:00+11сз1281100 0.0 1022409
12:00+12з227896 0.0 1021602
15:00+12з557978 0.1 1020431
18:00+12з4679100 0.0 1020452
21:00+10зсз3782100 0.0 1020305
14 апреля, ср
ср1400:00+10зюз4685100 0.1 1018409
03:00+10з4986100 0.2 1017510
06:00+10з4982100 0.0 1017601
09:00+12зсз6769100 0.0 1017916
12:00+14зсз5664100 0.1 10171069
15:00+15сз5658100 0.1 10161247
18:00+13зсз3666100 0.0 1016244
21:00+10зюз3481100 0.0 101881
15 апреля, чт
чт1500:00+9зюз3482100 0.0 101766
03:00+8з2287100 0.0 101722
06:00+8зюз35860 0.0 101786
09:00+15зсз34590 0.0 1017620
12:00+19зсз344043 0.0 10151429
15:00+21ссз34315 0.0 10141686
18:00+17ссв23495 0.0 101527
21:00+13вюв115575 0.0 101610
16 апреля, пт
пт1600:00+12з1158100 0.0 101610
03:00+10з22655 0.0 101610
06:00+10з11695 0.0 101710
09:00+17всв12514 0.0 1017433
12:00+21всв33414 0.0 10161454
15:00+22в44355 0.0 10151956
18:00+19в34505 0.0 101552
21:00+15вюв375568 0.0 1015115